Regional Weather Roundup
Issued by NWS

Home | Current Version | Previous Version | Graphics & Text | Print | Product List | Glossary On
Versions: 1 2 3 4 5 6 7 8 9 10 11 12 13 14 15 16 17 18 19 20 21 22 23 24 25 26 27 28 29 30 31 32 33 34 35 36 37 38 39 40 41 42 43 44 45 46 47 48 49 50
000
ASUS45 KABQ 241510
RWRNM
NEW MEXICO REGIONAL WEATHER ROUNDUP
NATIONAL WEATHER SERVICE ALBUQUERQUE NM
900 AM MDT SUN MAY 24 2015

NOTE: "FAIR" MEANS FEW OR NO CLOUDS BELOW 12,000 FEET AGL WITH NO
       SIGNIFICANT WEATHER OR OBSTRUCTIONS TO VISION.

      THIS PRODUCT IS RELEASED AS TWO VERSIONS.  ONE VERSION NEAR
      THE TOP OF THE HOUR CONTAINING PRELIMINARY DATA FROM ALBUQUERQUE
      AND OTHER STATIONS.  A FINAL VERSION WITH ADDITIONAL DATA IS
      ISSUED ABOUT 10 MINUTES AFTER THE HOUR.

NMZ501-503-504-510>518-241600-
NORTHWEST PLATEAU/NORTHCENTRAL MOUNTAINS

CITY           SKY/WX    TMP DP  RH WIND       PRES   REMARKS
FARMINGTON     CLOUDY    45  43  93 W7        29.99R
LOS ALAMOS     PTSUNNY   49  36  61 E6        30.04R
SANTA FE       MOSUNNY   53  34  48 SW8       30.01R
TAOS           CLOUDY    43  32  65 CALM      30.03S
ANGEL FIRE     PTSUNNY   39  32  73 CALM      30.06R

$$
NMZ402-403-502-505>509-241600-
WESTCENTRAL MOUNTAINS/SOUTHWEST MOUNTAINS

CITY           SKY/WX    TMP DP  RH WIND       PRES   REMARKS
GALLUP         CLOUDY    47  33  58 SW10      30.03S
GRANTS         MOSUNNY   51  35  55 E6        30.04S
SILVER CITY      N/A     57  28  33 NW9       30.06S

$$
NMZ407-409-411-412-241600-
SOUTHERN DESERTS

CITY           SKY/WX    TMP DP  RH WIND       PRES   REMARKS
LORDSBURG      FAIR      59  28  31 CALM      30.02S
DEMING         SUNNY     62  29  28 W10       30.02R
LAS CRUCES     SUNNY     64  29  27 W10       30.02R
HOLLOMAN AFB   MOSUNNY   66  26  21 S7        29.96R
ALAMOGORDO     SUNNY     66  25  20 S10       29.98R
T OR C         SUNNY     62  28  27 VRB5      29.99R

$$
NMZ519>523-241600-
CENTRAL VALLEYS/CENTRAL HIGHLANDS

CITY           SKY/WX    TMP DP  RH WIND       PRES   REMARKS
ALBUQUERQUE    PTSUNNY   55  36  48 CALM      30.01S
DOUBLE EAGLE   PTSUNNY   52  37  58 CALM      30.02S
MORIARTY ARPT  FAIR      55  35  47 SE3       30.02S
CLINES CORNERS NOT AVBL
BELEN          FAIR      57  34  41 SW5       30.01S
SOCORRO        FAIR      60  33  35 N8        30.00R

$$
NMZ524>526-539-540-241600-
SOUTHCENTRAL MOUNTAINS

CITY           SKY/WX    TMP DP  RH WIND       PRES   REMARKS
RUIDOSO        SUNNY     55  28  35 NW8       30.06S

$$
NMZ527>531-241600-
NORTHEAST HIGHLANDS/NORTHEAST PLAINS

CITY           SKY/WX    TMP DP  RH WIND       PRES   REMARKS
LAS VEGAS      SUNNY     55  31  39 SW10      29.98S
RATON          MOSUNNY   52  33  48 CALM      29.93S
CLAYTON        SUNNY     59  48  67 VRB5      29.89S

$$
NMZ532>537-241600-
EASTCENTRAL PLAINS

CITY           SKY/WX    TMP DP  RH WIND       PRES   REMARKS
TUCUMCARI      MOSUNNY   60  52  74 VRB6      29.88R
CANNON AFB     SUNNY     62  47  58 NW13      29.88S
CLOVIS AIRPORT SUNNY     61  48  63 NW9       29.88S

$$
NMZ028-029-538-241600-
SOUTHEAST PLAINS

CITY           SKY/WX    TMP DP  RH WIND       PRES   REMARKS
ROSWELL        SUNNY     69  35  28 VRB6      29.90S
ARTESIA        SUNNY     73  28  19 W14       29.92S
CARLSBAD       SUNNY     75  30  19 W20G25    29.90F
HOBBS          SUNNY     66  46  48 SW15      29.92R


$$



USA.gov is the U.S. government's official web portal to all federal, state and local government web resources and services.